Location: Poughquag
(41.6090°N, 73.6820°W)
Time: 11:59:34
(UTC-04:00)

Vanguard 2 Rocket - Pass Details

Date: 05 June 2020
Orbit: 556 x 3324 km, 32.9° (Epoch: 06 July)

Event Time Altitude Azimuth Distance (km) Brightness Sun altitude
Rises 19:32:39 0° 271° (W) 4,663 12.0 8.0°
Reaches altitude 10° 19:35:41 10° 261° (W) 4,023 11.3 7.4°
Maximum altitude 19:45:24 33° 203° (SSW) 3,472 9.9 5.8°
Drops below altitude 10° 19:59:49 10° 149° (SSE) 5,968 10.6 3.4°
Sets 20:05:43 0° 141° (SE) 7,202 10.9 2.4°
